Lawrence, KS

3:04 AM CDT on July 28, 2017 (GMT -0500)
Lawrence Municipal

Weather History for KLWC - January, 2014

Change the Weather History Date:

Tuesday, January 14, 2014

  Actual Average Record
Temperature  
Mean Temperature 34 °F 29 °F  
Max Temperature 47 °F 40 °F 58 °F (2016)
Min Temperature 20 °F 18 °F 5 °F (2005)
Degree Days  
Heating Degree Days 31 36  
Month to date heating degree days 554 504  
Since 1 July heating degree days 2705 2547  
Cooling Degree Days 0 0  
Month to date cooling degree days 0 0  
Year to date cooling degree days 0 0  
Moisture  
Dew Point 19 °F    
Average Humidity 48    
Maximum Humidity 72    
Minimum Humidity 23    
Precipitation  
Precipitation 0.00 in 0.03 in 0.25 in (2007)
Month to date precipitation 0.07 0.38  
Year to date precipitation 0.07 0.38  
Sea Level Pressure  
Sea Level Pressure 30.06 in    
Wind  
Wind Speed 13 mph (NW)    
Max Wind Speed 30 mph    
Max Gust Speed 40 mph    
Visibility 10 miles    
Events      
T = Trace of Precipitation, MM = Missing Value Source: NWS Daily Summary

Daily Weather History Graph

Daily Weather History Graph

Search for Another Location

Airport or City:

Trip Planner

Search our weather history database for the weather conditions in past years. The results will help you decide how hot, cold, wet, or windy it might be!

Date:

Astronomy

Jan. 14, 2014 Rise Set
Actual Time 7:38 AM CST 5:21 PM CST
Civil Twilight 7:09 AM CST 5:51 PM CST
Nautical Twilight 6:36 AM CST 6:23 PM CST
Astronomical Twilight 6:04 AM CST 6:56 PM CST
Moon 4:27 PM CST (1/14) 6:13 AM CST (1/14)
Length of Visible Light 10h 41m
Length of Day
9h 43m
Waxing Gibbous, 98% of the Moon is Illuminated
Jan 14
Waxing Gibbous
Jan 15
Full
Jan 23
Last Quarter
Jan 30
New
Feb 6
First Quarter

Hourly Weather History & Observations

Time (CST) Temp. Windchill Dew Point Humidity Pressure Visibility Wind Dir Wind Speed Gust Speed Precip Events Conditions
12:52 AM 32.0 °F - 25.0 °F 75% 29.79 in 10.0 mi Calm Calm - N/A   Overcast
1:52 AM 39.0 °F 36.8 °F 26.1 °F 60% 29.80 in 10.0 mi West 3.5 mph - N/A   Overcast
2:52 AM 37.0 °F - 26.1 °F 65% 29.80 in 10.0 mi Calm Calm - N/A   Mostly Cloudy
3:52 AM 32.0 °F - 25.0 °F 75% 29.78 in 10.0 mi Calm Calm - N/A   Overcast
4:52 AM 36.0 °F 31.1 °F 27.0 °F 70% 29.82 in 10.0 mi NW 5.8 mph - N/A   Overcast
5:52 AM 35.1 °F 31.0 °F 26.1 °F 70% 29.85 in 10.0 mi North 4.6 mph - N/A   Partly Cloudy
6:52 AM 43.0 °F 35.1 °F 30.9 °F 62% 29.90 in 10.0 mi NW 17.3 mph 23.0 mph N/A   Clear
7:52 AM 43.0 °F 33.8 °F 28.9 °F 58% 29.96 in 10.0 mi NNW 23.0 mph 31.1 mph N/A   Clear
8:52 AM 41.0 °F 33.1 °F 28.0 °F 60% 30.02 in 10.0 mi NNW 15.0 mph - N/A   Clear
9:52 AM 43.0 °F 34.0 °F 27.0 °F 53% 30.07 in 10.0 mi NW 21.9 mph 26.5 mph N/A   Clear
10:52 AM 45.0 °F 37.1 °F 23.0 °F 42% 30.10 in 10.0 mi NNW 19.6 mph - N/A   Clear
11:52 AM 46.0 °F 37.8 °F 21.0 °F 37% 30.10 in 10.0 mi NW 23.0 mph 31.1 mph N/A   Clear
12:52 PM 46.0 °F 37.6 °F 16.0 °F 30% 30.11 in 10.0 mi NW 24.2 mph 31.1 mph N/A   Clear
1:52 PM 46.0 °F 37.8 °F 16.0 °F 30% 30.12 in 10.0 mi WNW 23.0 mph 28.8 mph N/A   Clear
2:52 PM 45.0 °F 36.0 °F 12.0 °F 26% 30.13 in 10.0 mi WNW 25.3 mph 32.2 mph N/A   Clear
3:52 PM 45.0 °F 36.9 °F 10.0 °F 24% 30.15 in 10.0 mi NW 20.7 mph 29.9 mph N/A   Clear
4:52 PM 42.1 °F 34.2 °F 8.1 °F 25% 30.17 in 10.0 mi NW 16.1 mph - N/A   Clear
5:52 PM 39.0 °F 28.0 °F 5.0 °F 24% 30.21 in 10.0 mi NW 25.3 mph 33.4 mph N/A   Clear
6:52 PM 32.0 °F 23.0 °F 8.1 °F 37% 30.23 in 10.0 mi NNW 11.5 mph - N/A   Clear
7:52 PM 32.0 °F 24.2 °F 10.9 °F 42% 30.23 in 10.0 mi North 9.2 mph - N/A   Clear
8:52 PM 28.0 °F 20.8 °F 10.9 °F 49% 30.25 in 10.0 mi NNW 6.9 mph - N/A   Clear
9:52 PM 26.1 °F 20.5 °F 12.9 °F 58% 30.26 in 10.0 mi NW 4.6 mph - N/A   Clear
10:52 PM 21.9 °F 14.5 °F 12.9 °F 68% 30.27 in 10.0 mi WNW 5.8 mph - N/A   Clear
11:52 PM 21.0 °F 14.6 °F 12.0 °F 68% 30.27 in 10.0 mi NW 4.6 mph - N/A   Clear